sat.trackr.live / text

‹ back to catalog

STARLINK-32384

NORAD 62146 · 2024-224H

PAYLOAD ACTIVE UNKNOWN

§ Identity

Operator
Country
US
Launch date
2024-11-30
Launch site
AFETR
Launch vehicle
Mass (kg)
RCS (m²)

Purposes: comms

External: N2YO · Heavens-Above · Gunter

§ Orbital elements

Epoch: 2026-09-21T08:35:50.698752Z

Period
94.27 min
Inclination
43.0007°
Eccentricity
0.0001386
Mean motion
15.27589352 rev/d
Perigee alt
482.1 km
Apogee alt
484.0 km
Semi-major
6,861.2 km
B*
2.6569e-4
RAAN
133.1898°
Arg perigee
265.9733°
Mean anomaly
94.0961°
Rev number
10,240

§ Raw data

STARLINK-323841 62146U 24224H   26264.35822568  .00007058  00000+0  26569-3 0  99922 62146  43.0007 133.1898 0001386 265.9733  94.0961 15.27589352102404

JSON: /api/v1/satellites/62146 · /tle

For live sub-satellite position, see the globe view (requires WebGL).

§ Visibility from observer

Set your observer location to see the next 7 days of passes ≥ 10°. The values pass through the URL so the page stays shareable.

No JS? Fill the form by hand. The geolocation button needs JavaScript.